| time (UTC) | temp F | wind direction | speed MPH | gust MPH | rain 1hr in | rain 24hr in | rain mn in | humidity % | barometer mb |
| 20260904074557 | 72 | 281 | 2.0 | 4.0 | 0.00 | 0.01 | 0.00 | 74 | 1019.6 |
| 20260904073608 | 71 | 316 | 4.0 | 11.0 | 0.00 | 0.01 | 0.00 | 74 | 1019.5 |
| 20260904072556 | 71 | 255 | 3.0 | 7.0 | 0.00 | 0.01 | 0.00 | 77 | 1019.7 |
| 20260904071609 | 70 | 326 | 2.0 | 6.0 | 0.00 | 0.01 | 0.00 | 78 | 1019.9 |
| 20260904070559 | 69 | 191 | 1.0 | 2.0 | 0.00 | 0.01 | 0.00 | 80 | 1020.1 |
| 20260904065544 | 69 | 193 | 1.0 | 2.0 | 0.00 | 0.01 | 0.00 | 80 | 1020.2 |
| 20260904064532 | 68 | 321 | 2.0 | 6.0 | 0.00 | 0.01 | 0.00 | 82 | 1020.2 |
| 20260904063521 | 67 | 315 | 2.0 | 4.0 | 0.00 | 0.01 | 0.00 | 84 | 1020.3 |
| 20260904062110 | 67 | 354 | 1.0 | 2.0 | 0.00 | 0.01 | 0.00 | 85 | 1020.5 |
| 20260904060520 | 66 | 38 | 2.0 | 6.0 | 0.00 | 0.01 | 0.00 | 86 | 1020.7 |
| 20260904055610 | 66 | 135 | 0.0 | 4.0 | 0.00 | 0.01 | 0.00 | 86 | 1020.7 |
| 20260904054111 | 66 | 35 | 1.0 | 4.0 | 0.00 | 0.01 | 0.00 | 85 | 1020.9 |
| 20260904052558 | 66 | 281 | 2.0 | 4.0 | 0.00 | 0.01 | 0.00 | 85 | 1020.9 |
| 20260904051532 | 66 | 232 | 1.0 | 4.0 | 0.00 | 0.01 | 0.00 | 84 | 1021.2 |
| 20260904050522 | 66 | 27 | 0.0 | 2.0 | 0.00 | 0.01 | 0.00 | 84 | 1021.2 |
| 20260904045609 | 66 | 169 | 1.0 | 4.0 | 0.00 | 0.01 | 0.00 | 84 | 1021.3 |
| 20260904044111 | 65 | 343 | 0.0 | 2.0 | 0.00 | 0.01 | 0.00 | 85 | 1021.2 |
| 20260904042555 | 65 | 315 | 0.0 | 4.0 | 0.00 | 0.01 | 0.00 | 84 | 1021.2 |
| 20260904041607 | 66 | 311 | 2.0 | 6.0 | 0.00 | 0.01 | 0.00 | 84 | 1021.4 |
| 20260904040557 | 66 | 293 | 1.0 | 2.0 | 0.00 | 0.01 | 0.00 | 83 | 1021.6 |
| 20260904035610 | 66 | 281 | 1.0 | 4.0 | 0.00 | 0.01 | 0.00 | 82 | 1021.8 |
| 20260904034109 | 66 | 300 | 1.0 | 4.0 | 0.00 | 0.01 | 0.00 | 82 | 1022.1 |
| 20260904032519 | 65 | 293 | 0.0 | 2.0 | 0.00 | 0.01 | 0.00 | 84 | 1022.1 |
| 20260904031610 | 65 | 324 | 1.0 | 4.0 | 0.00 | 0.01 | 0.00 | 83 | 1022.2 |
| 20260904030555 | 65 | 0.0 | 0.0 | 0.00 | 0.01 | 0.00 | 83 | 1022.2 | |
| 20260904025609 | 65 | 315 | 0.0 | 2.0 | 0.00 | 0.01 | 0.00 | 84 | 1022.1 |
| 20260904024055 | 64 | 0.0 | 2.0 | 0.00 | 0.01 | 0.00 | 85 | 1022.3 | |
| 20260904023022 | 64 | 0.0 | 0.0 | 0.00 | 0.01 | 0.00 | 84 | 1022.3 | |
| 20260904022109 | 64 | 0.0 | 0.0 | 0.00 | 0.01 | 0.00 | 85 | 1022.3 | |
| 20260904020557 | 64 | 0.0 | 2.0 | 0.00 | 0.01 | 0.00 | 84 | 1022.4 | |
| 20260904015544 | 64 | 0.0 | 2.0 | 0.00 | 0.01 | 0.00 | 84 | 1022.4 | |
| 20260904014532 | 65 | 338 | 0.0 | 2.0 | 0.00 | 0.01 | 0.00 | 83 | 1022.6 |
| 20260904013521 | 65 | 315 | 0.0 | 4.0 | 0.00 | 0.01 | 0.00 | 83 | 1022.7 |
| 20260904012109 | 65 | 289 | 1.0 | 4.0 | 0.00 | 0.01 | 0.00 | 82 | 1022.8 |
| 20260904010557 | 65 | 113 | 2.0 | 4.0 | 0.00 | 0.01 | 0.00 | 81 | 1022.6 |
| 20260904005610 | 65 | 306 | 1.0 | 4.0 | 0.00 | 0.01 | 0.00 | 81 | 1022.8 |
| 20260904004556 | 65 | 304 | 1.0 | 2.0 | 0.00 | 0.01 | 0.00 | 82 | 1022.8 |
| 20260904003520 | 65 | 34 | 0.0 | 2.0 | 0.00 | 0.01 | 0.00 | 82 | 1023.0 |
| 20260904002057 | 66 | 0.0 | 0.0 | 0.00 | 0.01 | 0.00 | 81 | 1022.9 | |
| 20260904001036 | 66 | 322 | 2.0 | 4.0 | 0.00 | 0.01 | 0.00 | 79 | 1023.0 |
| 20260903235545 | 66 | 303 | 2.0 | 7.0 | 0.00 | 0.01 | 0.00 | 79 | 1023.0 |
| 20260903234534 | 66 | 316 | 2.0 | 7.0 | 0.00 | 0.01 | 0.00 | 80 | 1023.1 |
| 20260903233522 | 66 | 293 | 1.0 | 2.0 | 0.00 | 0.01 | 0.00 | 79 | 1023.3 |
| 20260903232109 | 67 | 68 | 1.0 | 2.0 | 0.00 | 0.01 | 0.00 | 78 | 1023.4 |
| 20260903231033 | 67 | 253 | 2.0 | 11.0 | 0.00 | 0.01 | 0.00 | 78 | 1023.4 |
| 20260903225544 | 67 | 305 | 3.0 | 9.0 | 0.00 | 0.01 | 0.00 | 78 | 1023.5 |
| 20260903224533 | 67 | 304 | 3.0 | 7.0 | 0.00 | 0.01 | 0.00 | 78 | 1023.5 |
| 20260903223521 | 66 | 309 | 3.0 | 6.0 | 0.00 | 0.01 | 0.00 | 78 | 1023.6 |
| 20260903222108 | 66 | 180 | 2.0 | 4.0 | 0.00 | 0.01 | 0.00 | 78 | 1023.8 |
| 20260903221031 | 66 | 315 | 2.0 | 4.0 | 0.00 | 0.01 | 0.00 | 78 | 1023.7 |
| 20260903220019 | 66 | 346 | 1.0 | 2.0 | 0.00 | 0.01 | 0.00 | 79 | 1024.0 |
| 20260903215108 | 66 | 325 | 1.0 | 4.0 | 0.00 | 0.01 | 0.01 | 79 | 1023.7 |
| 20260903214056 | 65 | 0.0 | 2.0 | 0.00 | 0.01 | 0.01 | 79 | 1023.6 | |
| 20260903213033 | 66 | 280 | 1.0 | 4.0 | 0.00 | 0.01 | 0.01 | 78 | 1023.8 |
| 20260903211609 | 66 | 291 | 3.0 | 4.0 | 0.00 | 0.01 | 0.01 | 77 | 1023.7 |
| 20260903210110 | 66 | 286 | 1.0 | 4.0 | 0.00 | 0.01 | 0.01 | 77 | 1023.7 |
| 20260903204557 | 65 | 0.0 | 0.0 | 0.00 | 0.01 | 0.01 | 79 | 1023.8 | |
| 20260903203521 | 65 | 315 | 0.0 | 2.0 | 0.00 | 0.01 | 0.01 | 79 | 1023.9 |
| 20260903202032 | 65 | 321 | 1.0 | 2.0 | 0.00 | 0.01 | 0.01 | 78 | 1023.9 |
| 20260903201020 | 66 | 299 | 2.0 | 4.0 | 0.00 | 0.01 | 0.01 | 77 | 1023.8 |
| 20260903200109 | 66 | 293 | 2.0 | 7.0 | 0.00 | 0.01 | 0.01 | 76 | 1023.8 |
| 20260903194533 | 66 | 272 | 2.0 | 7.0 | 0.00 | 0.01 | 0.01 | 76 | 1023.8 |
| 20260903193520 | 66 | 291 | 4.0 | 9.0 | 0.00 | 0.01 | 0.01 | 75 | 1023.7 |
| 20260903192108 | 66 | 284 | 3.0 | 9.0 | 0.00 | 0.01 | 0.01 | 75 | 1023.8 |
| 20260903190521 | 66 | 309 | 4.0 | 11.0 | 0.00 | 0.01 | 0.01 | 74 | 1023.9 |
| 20260903185608 | 66 | 358 | 4.0 | 14.0 | 0.00 | 0.01 | 0.01 | 74 | 1023.8 |
| 20260903184556 | 66 | 266 | 3.0 | 7.0 | 0.00 | 0.01 | 0.01 | 74 | 1023.9 |
| 20260903183522 | 66 | 314 | 3.0 | 8.0 | 0.00 | 0.01 | 0.01 | 74 | 1023.9 |
| 20260903182109 | 66 | 292 | 4.0 | 7.0 | 0.00 | 0.01 | 0.01 | 74 | 1023.9 |
| 20260903180521 | 66 | 293 | 3.0 | 7.0 | 0.00 | 0.01 | 0.01 | 75 | 1023.5 |
| 20260903175608 | 66 | 280 | 2.0 | 7.0 | 0.00 | 0.01 | 0.01 | 77 | 1023.5 |
| 20260903174556 | 66 | 357 | 1.0 | 2.0 | 0.00 | 0.01 | 0.01 | 76 | 1023.6 |
| 20260903173544 | 67 | 322 | 4.0 | 9.0 | 0.00 | 0.01 | 0.01 | 75 | 1023.7 |
| 20260903172534 | 67 | 298 | 5.0 | 11.0 | 0.00 | 0.01 | 0.01 | 75 | 1023.5 |
| 20260903171521 | 67 | 292 | 6.0 | 13.0 | 0.00 | 0.01 | 0.01 | 74 | 1023.5 |
| 20260903170109 | 67 | 290 | 5.0 | 16.0 | 0.00 | 0.01 | 0.01 | 73 | 1023.5 |
| 20260903164533 | 67 | 306 | 4.0 | 9.0 | 0.00 | 0.01 | 0.01 | 74 | 1023.6 |
| 20260903163521 | 67 | 316 | 5.0 | 14.0 | 0.00 | 0.01 | 0.01 | 74 | 1023.7 |
| 20260903162110 | 67 | 299 | 4.0 | 11.0 | 0.00 | 0.02 | 0.01 | 74 | 1023.7 |
| 20260903160519 | 67 | 266 | 4.0 | 14.0 | 0.00 | 0.02 | 0.01 | 73 | 1023.9 |
| 20260903155611 | 67 | 304 | 5.0 | 14.0 | 0.00 | 0.02 | 0.01 | 74 | 1024.1 |
| 20260903154109 | 66 | 302 | 4.0 | 8.0 | 0.00 | 0.02 | 0.01 | 76 | 1024.4 |
| 20260903152557 | 66 | 301 | 8.0 | 13.0 | 0.00 | 0.02 | 0.01 | 76 | 1024.1 |
| 20260903151611 | 66 | 298 | 5.0 | 11.0 | 0.00 | 0.02 | 0.01 | 76 | 1024.2 |
| 20260903150557 | 66 | 356 | 6.0 | 14.0 | 0.00 | 0.02 | 0.01 | 75 | 1024.2 |
| 20260903145613 | 67 | 166 | 5.0 | 14.0 | 0.01 | 0.02 | 0.01 | 74 | 1024.1 |
| 20260903144110 | 67 | 302 | 5.0 | 15.0 | 0.01 | 0.02 | 0.01 | 73 | 1024.0 |
| 20260903142556 | 67 | 38 | 6.0 | 18.0 | 0.01 | 0.02 | 0.01 | 73 | 1024.0 |
| 20260903141521 | 67 | 298 | 5.0 | 11.0 | 0.01 | 0.02 | 0.01 | 73 | 1023.8 |
| 20260903140032 | 66 | 246 | 3.0 | 6.0 | 0.01 | 0.02 | 0.01 | 79 | 1024.1 |
| 20260903135020 | 68 | 326 | 7.0 | 22.0 | 0.00 | 0.01 | 0.00 | 70 | 1024.0 |
| 20260903134109 | 67 | 301 | 4.0 | 11.0 | 0.00 | 0.01 | 0.00 | 72 | 1023.7 |
| 20260903132557 | 69 | 338 | 7.0 | 11.0 | 0.00 | 0.01 | 0.00 | 65 | 1023.6 |
| 20260903131608 | 67 | 317 | 5.0 | 15.0 | 0.00 | 0.01 | 0.00 | 69 | 1023.5 |
| 20260903130109 | 65 | 293 | 4.0 | 15.0 | 0.00 | 0.01 | 0.00 | 79 | 1023.5 |
| 20260903124555 | 70 | 305 | 4.0 | 8.0 | 0.00 | 0.01 | 0.00 | 72 | 1023.8 |
| 20260903123520 | 75 | 260 | 5.0 | 15.0 | 0.00 | 0.01 | 0.00 | 54 | 1023.1 |
| 20260903122057 | 75 | 293 | 8.0 | 13.0 | 0.00 | 0.01 | 0.00 | 53 | 1023.0 |
| 20260903121020 | 75 | 310 | 4.0 | 11.0 | 0.00 | 0.01 | 0.00 | 51 | 1023.0 |
| 20260903120109 | 74 | 299 | 5.0 | 15.0 | 0.00 | 0.01 | 0.00 | 51 | 1023.3 |
| 20260903114555 | 75 | 315 | 6.0 | 13.0 | 0.00 | 0.01 | 0.00 | 49 | 1023.4 |
| 20260903113520 | 74 | 304 | 4.0 | 11.0 | 0.00 | 0.01 | 0.00 | 52 | 1023.6 |
| 20260903112031 | 74 | 303 | 3.0 | 8.0 | 0.00 | 0.01 | 0.00 | 52 | 1023.9 |
| 20260903111020 | 73 | 299 | 3.0 | 11.0 | 0.00 | 0.01 | 0.00 | 53 | 1024.0 |
| 20260903110107 | 73 | 281 | 3.0 | 11.0 | 0.00 | 0.01 | 0.00 | 52 | 1024.1 |
| 20260903105056 | 74 | 302 | 3.0 | 9.0 | 0.00 | 0.01 | 0.00 | 51 | 1024.2 |
| 20260903104019 | 73 | 88 | 2.0 | 8.0 | 0.00 | 0.01 | 0.00 | 54 | 1024.4 |
| 20260903103108 | 72 | 319 | 2.0 | 8.0 | 0.00 | 0.01 | 0.00 | 54 | 1024.4 |
| 20260903102057 | 72 | 225 | 5.0 | 11.0 | 0.00 | 0.01 | 0.00 | 53 | 1024.3 |
| 20260903101056 | 72 | 81 | 1.0 | 6.0 | 0.00 | 0.01 | 0.00 | 54 | 1024.4 |
| 20260903100020 | 74 | 223 | 2.0 | 8.0 | 0.00 | 0.01 | 0.00 | 52 | 1024.6 |
| 20260903095108 | 71 | 323 | 2.0 | 7.0 | 0.00 | 0.01 | 0.00 | 54 | 1024.8 |
| 20260903094055 | 70 | 45 | 3.0 | 4.0 | 0.00 | 0.01 | 0.00 | 57 | 1025.2 |
| 20260903093055 | 70 | 302 | 3.0 | 7.0 | 0.00 | 0.01 | 0.00 | 57 | 1025.2 |
| 20260903092019 | 69 | 240 | 2.0 | 7.0 | 0.00 | 0.01 | 0.00 | 57 | 1025.2 |
| 20260903091108 | 69 | 250 | 2.0 | 7.0 | 0.00 | 0.01 | 0.00 | 58 | 1025.3 |
| 20260903090056 | 69 | 293 | 2.0 | 2.0 | 0.00 | 0.01 | 0.00 | 59 | 1025.6 |
| 20260903085106 | 68 | 306 | 3.0 | 7.0 | 0.00 | 0.01 | 0.00 | 59 | 1025.4 |
| 20260903084056 | 68 | 338 | 2.0 | 4.0 | 0.00 | 0.01 | 0.00 | 61 | 1025.6 |
| 20260903083020 | 67 | 302 | 2.0 | 11.0 | 0.00 | 0.01 | 0.00 | 63 | 1026.0 |
| 20260903082108 | 66 | 323 | 2.0 | 4.0 | 0.00 | 0.01 | 0.00 | 65 | 1026.0 |
| 20260903080543 | 66 | 259 | 2.0 | 4.0 | 0.00 | 0.01 | 0.00 | 66 | 1026.1 |